Location: Mahannah Oil Field
(37.4664°N, 96.6003°W)
Time: 00:48:20
(UTC+00:00)

A-11 Canister half - Pass Details

Date: 24 January 2021
Orbit: 1524 x 1684 km, 47.3° (Epoch: 25 February)

Event Time Altitude Azimuth Distance (km) Brightness Sun altitude
Rises 22:20:56 0° 263° (W) 4,677 12.7 13.1°
Reaches altitude 10° 22:24:04 10° 268° (W) 3,705 12.1 12.6°
Maximum altitude 22:33:11 54° 345° (NNW) 1,849 9.5 11.1°
Drops below altitude 10° 22:42:36 10° 61° (ENE) 3,814 10.5 9.6°
Sets 22:45:53 0° 66° (ENE) 4,823 10.9 9.0°
